owner,sensor,date,latitude,longitude,vertical_datum,direction_of_sea_water_velocity,sea_water_speed,upward_sea_water_velocity,qcFlag 
TABS,ioos:station:wmo:42050:1,2012-12-01T00:00:00Z,28.8425,-94.2433,2.0,329.10227,5.978444614,-99999.0,'11133222,11111222,99999999' 
TABS,ioos:station:wmo:42050:1,2012-12-01T00:30:00Z,28.8425,-94.2433,2.0,296.8742784,3.318373095,-99999.0,'11133222,11111222,99999999' 
TABS,ioos:station:wmo:42050:1,2012-12-01T01:00:00Z,28.8425,-94.2433,2.0,279.3832909,3.557597504,-99999.0,'11133222,11111222,99999999' 
TABS,ioos:station:wmo:42050:1,2012-12-01T01:30:00Z,28.8425,-94.2433,2.0,302.3109332,4.377853355,-99999.0,'11133222,11111222,99999999' 
TABS,ioos:station:wmo:42050:1,2012-12-01T02:00:00Z,28.8425,-94.2433,2.0,279.9480238,3.299606037,-99999.0,'11133222,11111222,99999999' 
TABS,ioos:station:wmo:42050:1,2012-12-01T02:30:00Z,28.8425,-94.2433,2.0,255.2741308,3.225957222,-99999.0,'11133222,11111222,99999999' 
TABS,ioos:station:wmo:42050:1,2012-12-01T03:00:00Z,28.8425,-94.2433,2.0,293.1633034,6.330284354,-99999.0,'11133222,11111222,99999999' 
TABS,ioos:station:wmo:42050:1,2012-12-01T03:30:00Z,28.8425,-94.2433,2.0,292.4760706,4.891553945,-99999.0,'11133222,11111222,99999999' 
TABS,ioos:station:wmo:42050:1,2012-12-01T04:00:00Z,28.8425,-94.2433,2.0,300.4151815,2.864157817,-99999.0,'11133222,11111222,99999999' 
TABS,ioos:station:wmo:42050:1,2012-12-01T04:30:00Z,28.8425,-94.2433,2.0,313.5950766,4.901724186,-99999.0,'11133222,11111222,99999999' 
TABS,ioos:station:wmo:42050:1,2012-12-01T05:00:00Z,28.8425,-94.2433,2.0,336.1154314,4.494941601,-99999.0,'11133222,11111222,99999999' 
TABS,ioos:station:wmo:42050:1,2012-12-01T05:30:00Z,28.8425,-94.2433,2.0,315.7833509,6.208977372,-99999.0,'11133222,11111222,99999999' 
TABS,ioos:station:wmo:42050:1,2012-12-01T06:00:00Z,28.8425,-94.2433,2.0,335.8056845,5.514390265,-99999.0,'11133222,11111222,99999999' 
TABS,ioos:station:wmo:42050:1,2012-12-01T06:30:00Z,28.8425,-94.2433,2.0,339.4583884,4.730803314,-99999.0,'11133222,11111222,99999999' 
TABS,ioos:station:wmo:42050:1,2012-12-01T07:00:00Z,28.8425,-94.2433,2.0,324.138324,6.366985158,-99999.0,'11133222,11111222,99999999' 
TABS,ioos:station:wmo:42050:1,2012-12-01T07:30:00Z,28.8425,-94.2433,2.0,298.2315136,4.46060534,-99999.0,'11133222,11111222,99999999' 
TABS,ioos:station:wmo:42050:1,2012-12-01T08:00:00Z,28.8425,-94.2433,2.0,235.4616131,2.99848295,-99999.0,'11133222,11111222,99999999' 
TABS,ioos:station:wmo:42050:1,2012-12-01T08:30:00Z,28.8425,-94.2433,2.0,277.3651499,2.964456105,-99999.0,'11133222,11111222,99999999' 
TABS,ioos:station:wmo:42050:1,2012-12-01T09:00:00Z,28.8425,-94.2433,2.0,247.0909981,5.189296677,-99999.0,'11133222,11111222,99999999' 
TABS,ioos:station:wmo:42050:1,2012-12-01T09:30:00Z,28.8425,-94.2433,2.0,279.462721,3.892968019,-99999.0,'11133222,11111222,99999999' 
TABS,ioos:station:wmo:42050:1,2012-12-01T10:00:00Z,28.8425,-94.2433,2.0,231.6096127,3.317167466,-99999.0,'11133222,11111222,99999999' 
TABS,ioos:station:wmo:42050:1,2012-12-01T10:30:00Z,28.8425,-94.2433,2.0,227.8152344,4.318564576,-99999.0,'11133222,11111222,99999999' 
TABS,ioos:station:wmo:42050:1,2012-12-01T11:00:00Z,28.8425,-94.2433,2.0,230.5540888,7.743823345,-99999.0,'11133222,11111222,99999999' 
TABS,ioos:station:wmo:42050:1,2012-12-01T11:30:00Z,28.8425,-94.2433,2.0,221.7385015,9.943882542,-99999.0,'11133222,11111222,99999999' 
TABS,ioos:station:wmo:42050:1,2012-12-01T12:00:00Z,28.8425,-94.2433,2.0,226.2069597,10.40385025,-99999.0,'11111222,11111222,99999999' 
TABS,ioos:station:wmo:42050:1,2012-12-01T12:30:00Z,28.8425,-94.2433,2.0,226.8501308,9.197184352,-99999.0,'11133222,11111222,99999999' 
TABS,ioos:station:wmo:42050:1,2012-12-01T13:00:00Z,28.8425,-94.2433,2.0,232.8224965,10.44215016,-99999.0,'11111222,11111222,99999999' 
TABS,ioos:station:wmo:42050:1,2012-12-01T13:30:00Z,28.8425,-94.2433,2.0,230.4262782,9.794901735,-99999.0,'11133222,11111222,99999999' 
TABS,ioos:station:wmo:42050:1,2012-12-01T14:00:00Z,28.8425,-94.2433,2.0,233.1399662,11.23600018,-99999.0,'11111222,11111222,99999999' 
TABS,ioos:station:wmo:42050:1,2012-12-01T14:30:00Z,28.8425,-94.2433,2.0,233.456235,10.53017094,-99999.0,'11111222,11111222,99999999' 
TABS,ioos:station:wmo:42050:1,2012-12-01T15:00:00Z,28.8425,-94.2433,2.0,241.7735597,9.874153128,-99999.0,'11133222,11111222,99999999' 
TABS,ioos:station:wmo:42050:1,2012-12-01T15:30:00Z,28.8425,-94.2433,2.0,257.663813,10.62531411,-99999.0,'11111222,11111222,99999999' 
TABS,ioos:station:wmo:42050:1,2012-12-01T16:00:00Z,28.8425,-94.2433,2.0,263.3788185,9.020155209,-99999.0,'11133222,11111222,99999999' 
TABS,ioos:station:wmo:42050:1,2012-12-01T16:30:00Z,28.8425,-94.2433,2.0,268.9089762,8.931617995,-99999.0,'11133222,11111222,99999999' 
TABS,ioos:station:wmo:42050:1,2012-12-01T17:00:00Z,28.8425,-94.2433,2.0,283.2482091,8.989221323,-99999.0,'11133222,11111222,99999999' 
TABS,ioos:station:wmo:42050:1,2012-12-01T17:30:00Z,28.8425,-94.2433,2.0,289.6823304,9.59029718,-99999.0,'11133222,11111222,99999999' 
TABS,ioos:station:wmo:42050:1,2012-12-01T18:00:00Z,28.8425,-94.2433,2.0,297.8412713,10.04243496,-99999.0,'11111222,11111222,99999999' 
TABS,ioos:station:wmo:42050:1,2012-12-01T18:30:00Z,28.8425,-94.2433,2.0,314.612665,10.45127743,-99999.0,'11111222,11111222,99999999' 
TABS,ioos:station:wmo:42050:1,2012-12-01T19:00:00Z,28.8425,-94.2433,2.0,317.6096399,10.87243303,-99999.0,'11111222,11111222,99999999' 
TABS,ioos:station:wmo:42050:1,2012-12-01T19:30:00Z,28.8425,-94.2433,2.0,316.5544674,10.9500411,-99999.0,'11111222,11111222,99999999' 
TABS,ioos:station:wmo:42050:1,2012-12-01T20:00:00Z,28.8425,-94.2433,2.0,309.2328235,10.62503176,-99999.0,'11111222,11111222,99999999' 
TABS,ioos:station:wmo:42050:1,2012-12-01T20:30:00Z,28.8425,-94.2433,2.0,326.18121,11.08571152,-99999.0,'11111222,11111222,99999999' 
TABS,ioos:station:wmo:42050:1,2012-12-01T21:00:00Z,28.8425,-94.2433,2.0,329.6078436,11.52356282,-99999.0,'11111222,11111222,99999999' 
TABS,ioos:station:wmo:42050:1,2012-12-01T21:30:00Z,28.8425,-94.2433,2.0,327.886479,10.08271789,-99999.0,'11111222,11111222,99999999' 
TABS,ioos:station:wmo:42050:1,2012-12-01T22:00:00Z,28.8425,-94.2433,2.0,339.8961812,8.902426635,-99999.0,'11133222,11111222,99999999' 
TABS,ioos:station:wmo:42050:1,2012-12-01T22:30:00Z,28.8425,-94.2433,2.0,344.4941561,10.21168448,-99999.0,'11111222,11111222,99999999' 
TABS,ioos:station:wmo:42050:1,2012-12-01T23:00:00Z,28.8425,-94.2433,2.0,334.8394826,10.58425245,-99999.0,'11111222,11111222,99999999' 
TABS,ioos:station:wmo:42050:1,2012-12-01T23:30:00Z,28.8425,-94.2433,2.0,338.8936715,10.7191231,-99999.0,'11111222,11111222,99999999' 
TABS,ioos:station:wmo:42050:1,2012-12-02T00:00:00Z,28.8425,-94.2433,2.0,346.459135,9.823059605,-99999.0,'11133222,11111222,99999999' 
TABS,ioos:station:wmo:42050:1,2012-12-02T00:30:00Z,28.8425,-94.2433,2.0,341.8031857,10.66329217,-99999.0,'11111222,11111222,99999999' 
TABS,ioos:station:wmo:42050:1,2012-12-02T01:00:00Z,28.8425,-94.2433,2.0,346.0356552,9.696581872,-99999.0,'11133222,11111222,99999999' 
TABS,ioos:station:wmo:42050:1,2012-12-02T01:30:00Z,28.8425,-94.2433,2.0,350.9866141,9.446655493,-99999.0,'11133222,11111222,99999999' 
TABS,ioos:station:wmo:42050:1,2012-12-02T02:00:00Z,28.8425,-94.2433,2.0,351.6281195,8.035633142,-99999.0,'11133222,11111222,99999999' 
TABS,ioos:station:wmo:42050:1,2012-12-02T02:30:00Z,28.8425,-94.2433,2.0,8.144824779,5.576244256,-99999.0,'11133222,11111222,99999999' 
TABS,ioos:station:wmo:42050:1,2012-12-02T03:00:00Z,28.8425,-94.2433,2.0,350.6502271,6.709135563,-99999.0,'11133222,11111222,99999999' 
TABS,ioos:station:wmo:42050:1,2012-12-02T03:30:00Z,28.8425,-94.2433,2.0,336.2958995,7.437486134,-99999.0,'11133222,11111222,99999999' 
TABS,ioos:station:wmo:42050:1,2012-12-02T04:00:00Z,28.8425,-94.2433,2.0,348.0890229,5.232666624,-99999.0,'11133222,11111222,99999999' 
TABS,ioos:station:wmo:42050:1,2012-12-02T04:30:00Z,28.8425,-94.2433,2.0,349.4560917,7.923799594,-99999.0,'11133222,11111222,99999999' 
TABS,ioos:station:wmo:42050:1,2012-12-02T05:00:00Z,28.8425,-94.2433,2.0,339.5408739,5.550099098,-99999.0,'11133222,11111222,99999999' 
TABS,ioos:station:wmo:42050:1,2012-12-02T05:30:00Z,28.8425,-94.2433,2.0,12.77367969,3.301711677,-99999.0,'11133222,11111222,99999999' 
TABS,ioos:station:wmo:42050:1,2012-12-02T06:00:00Z,28.8425,-94.2433,2.0,2.72004903,4.214747917,-99999.0,'11133222,11111222,99999999' 
TABS,ioos:station:wmo:42050:1,2012-12-02T06:30:00Z,28.8425,-94.2433,2.0,355.3918847,3.982875845,-99999.0,'11133222,11111222,99999999' 
TABS,ioos:station:wmo:42050:1,2012-12-02T07:00:00Z,28.8425,-94.2433,2.0,338.445359,3.021291115,-99999.0,'11133222,11111222,99999999' 
TABS,ioos:station:wmo:42050:1,2012-12-02T07:30:00Z,28.8425,-94.2433,2.0,323.8708508,1.238103388,-99999.0,'11133222,11111222,99999999' 
TABS,ioos:station:wmo:42050:1,2012-12-02T08:00:00Z,28.8425,-94.2433,2.0,321.9214171,2.46454864,-99999.0,'11133222,11111222,99999999' 
TABS,ioos:station:wmo:42050:1,2012-12-02T08:30:00Z,28.8425,-94.2433,2.0,305.6674678,2.572566812,-99999.0,'11133222,11111222,99999999' 
TABS,ioos:station:wmo:42050:1,2012-12-02T09:00:00Z,28.8425,-94.2433,2.0,277.6699061,4.046195744,-99999.0,'11133222,11111222,99999999' 
TABS,ioos:station:wmo:42050:1,2012-12-02T09:30:00Z,28.8425,-94.2433,2.0,226.3690406,3.550690074,-99999.0,'11133222,11111222,99999999' 
TABS,ioos:station:wmo:42050:1,2012-12-02T10:00:00Z,28.8425,-94.2433,2.0,250.0472628,4.776714352,-99999.0,'11133222,11111222,99999999' 
TABS,ioos:station:wmo:42050:1,2012-12-02T10:30:00Z,28.8425,-94.2433,2.0,217.3836141,6.242251196,-99999.0,'11133222,11111222,99999999' 
TABS,ioos:station:wmo:42050:1,2012-12-02T11:00:00Z,28.8425,-94.2433,2.0,225.6688753,7.870635298,-99999.0,'11133222,11111222,99999999' 
TABS,ioos:station:wmo:42050:1,2012-12-02T11:30:00Z,28.8425,-94.2433,2.0,211.9789475,9.289822388,-99999.0,'11133222,11111222,99999999' 
TABS,ioos:station:wmo:42050:1,2012-12-02T12:00:00Z,28.8425,-94.2433,2.0,211.5876218,11.4928021,-99999.0,'11111222,11111222,99999999' 
TABS,ioos:station:wmo:42050:1,2012-12-02T12:30:00Z,28.8425,-94.2433,2.0,215.8256045,13.17218661,-99999.0,'11111222,11111222,99999999' 
TABS,ioos:station:wmo:42050:1,2012-12-02T13:00:00Z,28.8425,-94.2433,2.0,212.8248735,13.78032293,-99999.0,'11111222,11111222,99999999' 
TABS,ioos:station:wmo:42050:1,2012-12-02T13:30:00Z,28.8425,-94.2433,2.0,203.8016238,15.2140067,-99999.0,'11111222,11111222,99999999' 
TABS,ioos:station:wmo:42050:1,2012-12-02T14:00:00Z,28.8425,-94.2433,2.0,228.1869316,15.13428228,-99999.0,'11111222,11111222,99999999' 
TABS,ioos:station:wmo:42050:1,2012-12-02T14:30:00Z,28.8425,-94.2433,2.0,226.1482451,14.46323961,-99999.0,'11111222,11111222,99999999' 
TABS,ioos:station:wmo:42050:1,2012-12-02T15:00:00Z,28.8425,-94.2433,2.0,238.5304133,15.74589788,-99999.0,'11111222,11111222,99999999' 
TABS,ioos:station:wmo:42050:1,2012-12-02T15:30:00Z,28.8425,-94.2433,2.0,244.0921373,14.80821731,-99999.0,'11111222,11111222,99999999' 
TABS,ioos:station:wmo:42050:1,2012-12-02T16:00:00Z,28.8425,-94.2433,2.0,252.1371337,15.19234018,-99999.0,'11111222,11111222,99999999' 
TABS,ioos:station:wmo:42050:1,2012-12-02T16:30:00Z,28.8425,-94.2433,2.0,253.288419,13.77162663,-99999.0,'11111222,11111222,99999999' 
TABS,ioos:station:wmo:42050:1,2012-12-02T17:00:00Z,28.8425,-94.2433,2.0,266.7767841,14.05222402,-99999.0,'11111222,11111222,99999999' 
TABS,ioos:station:wmo:42050:1,2012-12-02T17:30:00Z,28.8425,-94.2433,2.0,278.9544823,14.45617169,-99999.0,'11111222,11111222,99999999' 
TABS,ioos:station:wmo:42050:1,2012-12-02T18:00:00Z,28.8425,-94.2433,2.0,283.1259654,15.41266038,-99999.0,'11111222,11111222,99999999' 
TABS,ioos:station:wmo:42050:1,2012-12-02T18:30:00Z,28.8425,-94.2433,2.0,291.7077641,15.84354758,-99999.0,'11111222,11111222,99999999' 
TABS,ioos:station:wmo:42050:1,2012-12-02T19:00:00Z,28.8425,-94.2433,2.0,304.2872177,15.97623235,-99999.0,'11111222,11111222,99999999' 
TABS,ioos:station:wmo:42050:1,2012-12-02T19:30:00Z,28.8425,-94.2433,2.0,308.2141652,17.05469144,-99999.0,'11111222,11111222,99999999' 
TABS,ioos:station:wmo:42050:1,2012-12-02T20:00:00Z,28.8425,-94.2433,2.0,311.5215787,18.64540694,-99999.0,'11111222,11111222,99999999' 
TABS,ioos:station:wmo:42050:1,2012-12-02T20:30:00Z,28.8425,-94.2433,2.0,321.5815135,21.16173197,-99999.0,'11111222,11111222,99999999' 
TABS,ioos:station:wmo:42050:1,2012-12-02T21:00:00Z,28.8425,-94.2433,2.0,319.4844575,17.4553287,-99999.0,'11111222,11111222,99999999' 
TABS,ioos:station:wmo:42050:1,2012-12-02T21:30:00Z,28.8425,-94.2433,2.0,323.3024575,19.98009009,-99999.0,'11111222,11111222,99999999' 
TABS,ioos:station:wmo:42050:1,2012-12-02T22:00:00Z,28.8425,-94.2433,2.0,324.9210612,23.68156456,-99999.0,'11111222,11111222,99999999' 
TABS,ioos:station:wmo:42050:1,2012-12-02T22:30:00Z,28.8425,-94.2433,2.0,323.8412797,21.43965018,-99999.0,'11111222,11111222,99999999' 
TABS,ioos:station:wmo:42050:1,2012-12-02T23:00:00Z,28.8425,-94.2433,2.0,328.6357422,22.55604575,-99999.0,'11111222,11111222,99999999' 
TABS,ioos:station:wmo:42050:1,2012-12-02T23:30:00Z,28.8425,-94.2433,2.0,330.2990359,21.17149499,-99999.0,'11111222,11111222,99999999' 
TABS,ioos:station:wmo:42050:1,2012-12-03T00:00:00Z,28.8425,-94.2433,2.0,328.6468367,18.9115864,-99999.0,'11111222,11111222,99999999' 
TABS,ioos:station:wmo:42050:1,2012-12-03T00:30:00Z,28.8425,-94.2433,2.0,329.9830251,19.82965708,-99999.0,'11111222,11111222,99999999' 
TABS,ioos:station:wmo:42050:1,2012-12-03T01:00:00Z,28.8425,-94.2433,2.0,331.0538926,13.88455617,-99999.0,'11111222,11111222,99999999' 
TABS,ioos:station:wmo:42050:1,2012-12-03T01:30:00Z,28.8425,-94.2433,2.0,334.9013347,12.2352973,-99999.0,'11111222,11111222,99999999' 
TABS,ioos:station:wmo:42050:1,2012-12-03T02:00:00Z,28.8425,-94.2433,2.0,342.3747655,12.08743149,-99999.0,'11111222,11111222,99999999' 
TABS,ioos:station:wmo:42050:1,2012-12-03T02:30:00Z,28.8425,-94.2433,2.0,333.0192496,11.70388824,-99999.0,'11111222,11111222,99999999' 
TABS,ioos:station:wmo:42050:1,2012-12-03T03:00:00Z,28.8425,-94.2433,2.0,344.2254913,11.99163041,-99999.0,'11111222,11111222,99999999' 
TABS,ioos:station:wmo:42050:1,2012-12-03T03:30:00Z,28.8425,-94.2433,2.0,349.7215147,11.7688742,-99999.0,'11111222,11111222,99999999' 
TABS,ioos:station:wmo:42050:1,2012-12-03T04:00:00Z,28.8425,-94.2433,2.0,0.936330511,9.181225408,-99999.0,'11133222,11111222,99999999' 
TABS,ioos:station:wmo:42050:1,2012-12-03T04:30:00Z,28.8425,-94.2433,2.0,352.3552151,10.52354028,-99999.0,'11111222,11111222,99999999' 
TABS,ioos:station:wmo:42050:1,2012-12-03T05:00:00Z,28.8425,-94.2433,2.0,349.4151282,7.131353308,-99999.0,'11133222,11111222,99999999' 
TABS,ioos:station:wmo:42050:1,2012-12-03T05:30:00Z,28.8425,-94.2433,2.0,12.46408917,11.49081372,-99999.0,'11111222,11111222,99999999' 
TABS,ioos:station:wmo:42050:1,2012-12-03T06:00:00Z,28.8425,-94.2433,2.0,10.60885841,9.61433305,-99999.0,'11133222,11111222,99999999' 
TABS,ioos:station:wmo:42050:1,2012-12-03T06:30:00Z,28.8425,-94.2433,2.0,28.06278375,6.844705983,-99999.0,'11133222,11111222,99999999' 
TABS,ioos:station:wmo:42050:1,2012-12-03T07:00:00Z,28.8425,-94.2433,2.0,1.05756038,5.961015014,-99999.0,'11133222,11111222,99999999' 
TABS,ioos:station:wmo:42050:1,2012-12-03T07:30:00Z,28.8425,-94.2433,2.0,14.60197533,8.845705173,-99999.0,'11133222,11111222,99999999' 
TABS,ioos:station:wmo:42050:1,2012-12-03T08:00:00Z,28.8425,-94.2433,2.0,6.141306715,7.945596265,-99999.0,'11133222,11111222,99999999' 
TABS,ioos:station:wmo:42050:1,2012-12-03T08:30:00Z,28.8425,-94.2433,2.0,335.987099,8.035452694,-99999.0,'11133222,11111222,99999999' 
TABS,ioos:station:wmo:42050:1,2012-12-03T09:00:00Z,28.8425,-94.2433,2.0,329.2560488,7.609448075,-99999.0,'11133222,11111222,99999999' 
TABS,ioos:station:wmo:42050:1,2012-12-03T09:30:00Z,28.8425,-94.2433,2.0,323.4193844,7.534095832,-99999.0,'11133222,11111222,99999999' 
TABS,ioos:station:wmo:42050:1,2012-12-03T10:00:00Z,28.8425,-94.2433,2.0,308.919589,4.138647122,-99999.0,'11133222,11111222,99999999' 
TABS,ioos:station:wmo:42050:1,2012-12-03T10:30:00Z,28.8425,-94.2433,2.0,287.9048266,5.464650035,-99999.0,'11133222,11111222,99999999' 
TABS,ioos:station:wmo:42050:1,2012-12-03T11:00:00Z,28.8425,-94.2433,2.0,297.916665,6.258258544,-99999.0,'11133222,11111222,99999999' 
TABS,ioos:station:wmo:42050:1,2012-12-03T11:30:00Z,28.8425,-94.2433,2.0,291.4443433,5.060296434,-99999.0,'11133222,11111222,99999999' 
TABS,ioos:station:wmo:42050:1,2012-12-03T12:00:00Z,28.8425,-94.2433,2.0,271.4480172,5.541768671,-99999.0,'11133222,11111222,99999999' 
TABS,ioos:station:wmo:42050:1,2012-12-03T12:30:00Z,28.8425,-94.2433,2.0,267.2424289,7.068182227,-99999.0,'11133222,11111222,99999999' 
TABS,ioos:station:wmo:42050:1,2012-12-03T13:00:00Z,28.8425,-94.2433,2.0,260.7726586,9.604269884,-99999.0,'11133222,11111222,99999999' 
TABS,ioos:station:wmo:42050:1,2012-12-03T13:30:00Z,28.8425,-94.2433,2.0,267.8168497,9.977239097,-99999.0,'11133222,11111222,99999999' 
TABS,ioos:station:wmo:42050:1,2012-12-03T14:00:00Z,28.8425,-94.2433,2.0,257.3074726,9.512439225,-99999.0,'11133222,11111222,99999999' 
TABS,ioos:station:wmo:42050:1,2012-12-03T14:30:00Z,28.8425,-94.2433,2.0,273.9245217,9.351924936,-99999.0,'11133222,11111222,99999999' 
TABS,ioos:station:wmo:42050:1,2012-12-03T15:00:00Z,28.8425,-94.2433,2.0,279.0170662,10.1453684,-99999.0,'11111222,11111222,99999999' 
TABS,ioos:station:wmo:42050:1,2012-12-03T15:30:00Z,28.8425,-94.2433,2.0,271.7938278,10.22500856,-99999.0,'11111222,11111222,99999999' 
TABS,ioos:station:wmo:42050:1,2012-12-03T16:00:00Z,28.8425,-94.2433,2.0,283.8104657,12.90299578,-99999.0,'11111222,11111222,99999999' 
TABS,ioos:station:wmo:42050:1,2012-12-03T16:30:00Z,28.8425,-94.2433,2.0,297.368994,14.03047041,-99999.0,'11111222,11111222,99999999' 
TABS,ioos:station:wmo:42050:1,2012-12-03T17:00:00Z,28.8425,-94.2433,2.0,305.2607073,16.09234911,-99999.0,'11111222,11111222,99999999' 
TABS,ioos:station:wmo:42050:1,2012-12-03T17:30:00Z,28.8425,-94.2433,2.0,303.1859218,18.26975917,-99999.0,'11111222,11111222,99999999' 
TABS,ioos:station:wmo:42050:1,2012-12-03T18:00:00Z,28.8425,-94.2433,2.0,311.4508488,19.75911182,-99999.0,'11111222,11111222,99999999' 
TABS,ioos:station:wmo:42050:1,2012-12-03T18:30:00Z,28.8425,-94.2433,2.0,319.7471193,19.99484934,-99999.0,'11111222,11111222,99999999' 
TABS,ioos:station:wmo:42050:1,2012-12-03T19:00:00Z,28.8425,-94.2433,2.0,324.650053,20.96537383,-99999.0,'11111222,11111222,99999999' 
TABS,ioos:station:wmo:42050:1,2012-12-03T19:30:00Z,28.8425,-94.2433,2.0,329.96319,22.37491676,-99999.0,'11111222,11111222,99999999' 
TABS,ioos:station:wmo:42050:1,2012-12-03T20:00:00Z,28.8425,-94.2433,2.0,340.9245666,25.73306239,-99999.0,'11111222,11111222,99999999' 
TABS,ioos:station:wmo:42050:1,2012-12-03T20:30:00Z,28.8425,-94.2433,2.0,343.526516,24.57897069,-99999.0,'11111222,11111222,99999999' 
TABS,ioos:station:wmo:42050:1,2012-12-03T21:00:00Z,28.8425,-94.2433,2.0,345.2043969,22.86826841,-99999.0,'11111222,11111222,99999999' 
TABS,ioos:station:wmo:42050:1,2012-12-03T21:30:00Z,28.8425,-94.2433,2.0,348.5885541,22.08663397,-99999.0,'11111222,11111222,99999999' 
TABS,ioos:station:wmo:42050:1,2012-12-03T22:00:00Z,28.8425,-94.2433,2.0,353.1000646,21.80795497,-99999.0,'11111222,11111222,99999999' 
TABS,ioos:station:wmo:42050:1,2012-12-03T22:30:00Z,28.8425,-94.2433,2.0,348.4756716,19.37052658,-99999.0,'11111222,11111222,99999999' 
TABS,ioos:station:wmo:42050:1,2012-12-03T23:00:00Z,28.8425,-94.2433,2.0,1.752378935,18.96886923,-99999.0,'11111222,11111222,99999999' 
TABS,ioos:station:wmo:42050:1,2012-12-03T23:30:00Z,28.8425,-94.2433,2.0,9.582151784,14.95869647,-99999.0,'11111222,11111222,99999999' 
TABS,ioos:station:wmo:42050:1,2012-12-04T00:00:00Z,28.8425,-94.2433,2.0,10.59722904,12.45237728,-99999.0,'11111222,11111222,99999999' 
TABS,ioos:station:wmo:42050:1,2012-12-04T00:30:00Z,28.8425,-94.2433,2.0,7.90589947,10.83295897,-99999.0,'11111222,11111222,99999999' 
TABS,ioos:station:wmo:42050:1,2012-12-04T01:00:00Z,28.8425,-94.2433,2.0,355.9768675,9.834236117,-99999.0,'11133222,11111222,99999999' 
TABS,ioos:station:wmo:42050:1,2012-12-04T01:30:00Z,28.8425,-94.2433,2.0,357.7805601,6.454843143,-99999.0,'11133222,11111222,99999999' 
TABS,ioos:station:wmo:42050:1,2012-12-04T02:00:00Z,28.8425,-94.2433,2.0,354.8270537,7.319815571,-99999.0,'11133222,11111222,99999999' 
TABS,ioos:station:wmo:42050:1,2012-12-04T02:30:00Z,28.8425,-94.2433,2.0,359.7933679,5.540036101,-99999.0,'11133222,11144222,99999999' 
TABS,ioos:station:wmo:42050:1,2012-12-04T03:00:00Z,28.8425,-94.2433,2.0,336.7535872,6.258066794,-99999.0,'11133222,11111222,99999999' 
TABS,ioos:station:wmo:42050:1,2012-12-04T03:30:00Z,28.8425,-94.2433,2.0,320.4795366,5.924339626,-99999.0,'11133222,11111222,99999999' 
TABS,ioos:station:wmo:42050:1,2012-12-04T04:00:00Z,28.8425,-94.2433,2.0,343.4830332,6.331263697,-99999.0,'11133222,11111222,99999999' 
TABS,ioos:station:wmo:42050:1,2012-12-04T04:30:00Z,28.8425,-94.2433,2.0,348.4177585,7.421118514,-99999.0,'11133222,11111222,99999999' 
TABS,ioos:station:wmo:42050:1,2012-12-04T05:00:00Z,28.8425,-94.2433,2.0,4.937081851,6.042416735,-99999.0,'11133222,11111222,99999999' 
TABS,ioos:station:wmo:42050:1,2012-12-04T05:30:00Z,28.8425,-94.2433,2.0,352.4607829,6.17337023,-99999.0,'11133222,11111222,99999999' 
TABS,ioos:station:wmo:42050:1,2012-12-04T06:00:00Z,28.8425,-94.2433,2.0,353.4020524,5.39573906,-99999.0,'11133222,11111222,99999999' 
TABS,ioos:station:wmo:42050:1,2012-12-04T06:30:00Z,28.8425,-94.2433,2.0,336.8939376,6.523312042,-99999.0,'11133222,11111222,99999999' 
TABS,ioos:station:wmo:42050:1,2012-12-04T07:00:00Z,28.8425,-94.2433,2.0,346.1977716,6.538814877,-99999.0,'11133222,11111222,99999999' 
TABS,ioos:station:wmo:42050:1,2012-12-04T07:30:00Z,28.8425,-94.2433,2.0,335.3308392,3.785498646,-99999.0,'11133222,11111222,99999999' 
TABS,ioos:station:wmo:42050:1,2012-12-04T08:00:00Z,28.8425,-94.2433,2.0,319.8681437,5.166372035,-99999.0,'11133222,11111222,99999999' 
TABS,ioos:station:wmo:42050:1,2012-12-04T08:30:00Z,28.8425,-94.2433,2.0,334.9950804,5.914355417,-99999.0,'11133222,11111222,99999999' 
TABS,ioos:station:wmo:42050:1,2012-12-04T09:00:00Z,28.8425,-94.2433,2.0,345.1060301,7.936655467,-99999.0,'11133222,11111222,99999999' 
TABS,ioos:station:wmo:42050:1,2012-12-04T09:30:00Z,28.8425,-94.2433,2.0,329.9075299,7.558816045,-99999.0,'11133222,11111222,99999999' 
TABS,ioos:station:wmo:42050:1,2012-12-04T10:00:00Z,28.8425,-94.2433,2.0,334.1476305,6.833952005,-99999.0,'11133222,11111222,99999999' 
TABS,ioos:station:wmo:42050:1,2012-12-04T10:30:00Z,28.8425,-94.2433,2.0,319.8607021,4.17279283,-99999.0,'11133222,11111222,99999999' 
TABS,ioos:station:wmo:42050:1,2012-12-04T11:00:00Z,28.8425,-94.2433,2.0,301.837114,3.601888394,-99999.0,'11133222,11111222,99999999' 
TABS,ioos:station:wmo:42050:1,2012-12-04T11:30:00Z,28.8425,-94.2433,2.0,304.909282,5.084977876,-99999.0,'11133222,11111222,99999999' 
TABS,ioos:station:wmo:42050:1,2012-12-04T12:00:00Z,28.8425,-94.2433,2.0,275.4499525,5.896651592,-99999.0,'11133222,11111222,99999999' 
TABS,ioos:station:wmo:42050:1,2012-12-04T12:30:00Z,28.8425,-94.2433,2.0,284.6441698,5.26089346,-99999.0,'11133222,11111222,99999999' 
TABS,ioos:station:wmo:42050:1,2012-12-04T13:00:00Z,28.8425,-94.2433,2.0,250.5646016,6.341332668,-99999.0,'11133222,11111222,99999999' 
TABS,ioos:station:wmo:42050:1,2012-12-04T13:30:00Z,28.8425,-94.2433,2.0,270.7522891,3.81032807,-99999.0,'11133222,11111222,99999999' 
TABS,ioos:station:wmo:42050:1,2012-12-04T14:00:00Z,28.8425,-94.2433,2.0,253.9217591,6.535633099,-99999.0,'11133222,11111222,99999999' 
TABS,ioos:station:wmo:42050:1,2012-12-04T14:30:00Z,28.8425,-94.2433,2.0,262.0993135,4.583503027,-99999.0,'11133222,11111222,99999999' 
TABS,ioos:station:wmo:42050:1,2012-12-04T15:00:00Z,28.8425,-94.2433,2.0,263.1071721,5.499745449,-99999.0,'11133222,11111222,99999999' 
TABS,ioos:station:wmo:42050:1,2012-12-04T15:30:00Z,28.8425,-94.2433,2.0,269.0785066,6.220803807,-99999.0,'11133222,11111222,99999999' 
TABS,ioos:station:wmo:42050:1,2012-12-04T16:00:00Z,28.8425,-94.2433,2.0,271.9730066,8.424992582,-99999.0,'11133222,11111222,99999999' 